Other Surface Observations
Issued by NWS

Home | Current Version | Previous Version | Text Only | Print | Product List | Glossary On
Versions: 1 2 3 4 5 6 7 8 9 10 11 12 13 14 15 16 17 18 19 20 21 22 23 24 25 26 27 28 29 30 31 32 33 34 35 36 37 38 39 40 41 42 43 44 45 46 47 48 49 50
000
SXUS52 KTAE 300419
OSOTAE
OSOTAE
North Florida/South Alabama/Southwest Georgia Weather Roundup
National Weather Service Tallahassee Florida
1200 AM EDT SAT JUL 30 2016

Note: "fair" indicates few or no clouds below 12,000 feet with no
significant weather and/or obstructions to visibility.

!FLZ017-115-028-034-025-300500
...North Florida...

CITY           SKY/WX    TMP DP  RH WIND       PRES   REMARKS
TALLAHASSEE    CLEAR     82  76  81 CALM      30.03S
APALACHICOLA   CLEAR     80  76  87 CALM      30.03S
PERRY          CLEAR     79  75  89 CALM      30.04S
CROSS CITY       N/A     80  73  79 CALM      30.03S
JACKSONVILLE   PTCLDY    81  74  79 SW7       30.02R
$$

!FLZ112-006-005-002-011-300500
...Florida Panhandle...

CITY           SKY/WX    TMP DP  RH WIND       PRES   REMARKS
MARIANNA       CLEAR     79  75  87 SW5       30.02R
BONIFAY        NOT AVBL
PANAMA CITY NW FAIR      80  76  87 S3        30.01F
TYNDALL AFB    CLEAR     84  76  75 SW8       30.03S HX  93
TYND DRONE APT NOT AVBL
DE FUNIAK SPR  FAIR      75  75  99 SW3       30.04F
EGLIN AFB      PTCLDY    83  76  78 CALM      30.03S HX  91
DESTIN         PTCLDY    87  78  74 SW3       30.02S HX 100
HURLBURT       PTCLDY    85  75  73 SW6       30.02R HX  93
CRESTVIEW      PTCLDY    76  73  91 CALM      30.05S
PENSACOLA      CLEAR     80  76  87 CALM      30.02F
$$

!ALZ063-066-300500
...South Alabama...

CITY           SKY/WX    TMP DP  RH WIND       PRES   REMARKS
DOTHAN         CLEAR     78  74  87 SW6       30.07R
OZARK CAIRNS   CLEAR     76  75  95 SW5       30.03S
FT RUCKER HELI CLEAR     78  74  87 CALM      30.02S
RUCKER HELI 3  FAIR      77  74  90 W5        30.04F
RUCKER HELI 2  FAIR      76  74  93 S3        30.02F
FLORALA APT    PTCLDY    75  73  93 CALM      30.05F
ANDALUSIA      PTCLDY    80  72  76 CALM      30.03F
TROY           PTCLDY    76  74  93 CALM      30.04F
EUFALA         FAIR      78  71  79 CALM      30.01F
MOBILE         CLEAR     79  73  82 CALM      30.04S
$$

!GAZ120>161-300500
...Southwest and South Central Georgia...

CITY           SKY/WX    TMP DP  RH WIND       PRES   REMARKS
THOMASVILLE      N/A     79  79 100 CALM      30.04S
BAINBRIDGE     CLEAR     81  73  78 CALM      30.03S
MOODY AFB      PTCLDY    81  71  71 W6        30.02S
VALDOSTA       CLEAR     77  73  87 CALM      30.02F
MOULTRIE       CLEAR     81  73  78 CALM      30.05R
BLAKELY        CLEAR     79  73  83 CALM      30.03S
ALBANY         CLEAR     81  72  74 SW6       30.04S
TIFTON         FAIR      81  73  76 SW5       30.03S
FITZGERALD     FAIR      86  76  72 SW3       30.05R HX  96
CORDELE        FAIR      85  74  67 SW7       30.03R HX  93
AMERICUS       FAIR      81  68  65 W6        30.04R
HOMERVILLE     FAIR      81  73  78 W5        30.02F
$$

!GMZ750-755-770-775-300500
...Coastal and Buoy Obs...

STATION/POSITION TIME  TEMP    WIND        PRES    VSBY  WAVE
                       AIR SEA DIR/SP/G                  HT/PER
                 (UTC) (F)     (DEG/KT/KT) (MB)    (MI)  (FT/S)
KEATON BEACH     0400   87     270/ 12/ 14 1016.5F
CEDAR KEY        0400   87     280/  5/  7 1017.1F
C TOWER          0400   85     270/  9/ 10 1017.7F
APALACHICOLA BUO 0350   87 89  270/  4/  6 1017.2F         1/ 4
PANAMA CITY BUOY 0350   86 88  220/  6/  8 1017.6F         1/ 5
MOBILE BUOY      0400   85 88  200/ 10/ 14 1016.8R
ORANGE BCH AL BU 0350   85 88  210/ 10/ 12 1016.9S         1/ 6
$$




USA.gov is the U.S. government's official web portal to all federal, state and local government web resources and services.